SAS320T LKPR-ESSA

Flight info

Callsign SAS320T
Flight time 1h 57m
Altitude 40000
Route LKPR/30 N0483F400 VENO4B VENOX DCT DEKOV Y621 GARKI DCT POGAB DCT RENKI/N0484F410 L132 BODLA DCT GORPI DCT ARMOD Z228 NILUG NILU2P ESSA/19R
Aircraft A359/H-SDE2E3GHIJ3J4J5LM1ORWXY/LB1D1

Departure

Time 2026-05-06 16:46
Airport Václav Havel Airport Prague (LKPR)

Arrival

Time 2026-05-06 18:43
Airport Stockholm-Arlanda Airport (ESSA)
Time Latitude Longitude Altitude Speed Heading
2026-05-06 16:01 50.10843 14.26438 1175 ft 0 kts 35°
2026-05-06 16:04 50.10843 14.26437 1175 ft 0 kts 35°
2026-05-06 16:07 50.10842 14.26437 1175 ft 0 kts 35°
2026-05-06 16:23 50.10842 14.26436 1180 ft 0 kts 35°
2026-05-06 16:28 50.10841 14.26436 1180 ft 0 kts 35°
2026-05-06 16:34 50.10837 14.26431 1180 ft 4 kts 33°
2026-05-06 16:34 50.10813 14.26412 1175 ft 4 kts 14°
2026-05-06 16:34 50.10787 14.26409 1175 ft 4 kts 342°
2026-05-06 16:34 50.10766 14.26429 1175 ft 3 kts 306°
2026-05-06 16:35 50.10762 14.26439 1175 ft 0 kts 304°
2026-05-06 16:38 50.10764 14.26433 1175 ft 3 kts 305°
2026-05-06 16:38 50.10789 14.26381 1175 ft 9 kts 306°
2026-05-06 16:39 50.10808 14.26341 1175 ft 1 kts 307°
2026-05-06 16:39 50.10813 14.26315 1175 ft 5 kts 284°
2026-05-06 16:39 50.10833 14.26232 1177 ft 12 kts 290°
2026-05-06 16:39 50.10859 14.26098 1179 ft 15 kts 264°
2026-05-06 16:40 50.10783 14.25953 1174 ft 20 kts 217°
2026-05-06 16:40 50.10655 14.25844 1178 ft 16 kts 215°
2026-05-06 16:40 50.10628 14.25814 1176 ft 5 kts 214°
2026-05-06 16:40 50.10587 14.25773 1174 ft 8 kts 213°
2026-05-06 16:41 50.10532 14.25727 1183 ft 7 kts 194°
2026-05-06 16:41 50.10502 14.25755 1185 ft 10 kts 129°
2026-05-06 16:41 50.10502 14.25951 1173 ft 25 kts 104°
2026-05-06 16:41 50.10449 14.26084 1171 ft 11 kts 127°
2026-05-06 16:42 50.10392 14.26200 1181 ft 15 kts 127°
2026-05-06 16:42 50.10320 14.26348 1174 ft 19 kts 127°
2026-05-06 16:42 50.10232 14.26528 1175 ft 22 kts 128°
2026-05-06 16:42 50.10129 14.26730 1188 ft 24 kts 128°
2026-05-06 16:43 50.10037 14.26933 1199 ft 22 kts 126°
2026-05-06 16:43 50.09946 14.27125 1206 ft 22 kts 126°
2026-05-06 16:43 50.09844 14.27321 1209 ft 24 kts 130°
2026-05-06 16:43 50.09723 14.27514 1212 ft 26 kts 136°
2026-05-06 16:44 50.09589 14.27715 1217 ft 27 kts 136°
2026-05-06 16:44 50.09451 14.27930 1222 ft 29 kts 135°
2026-05-06 16:44 50.09310 14.28145 1221 ft 26 kts 135°
2026-05-06 16:44 50.09169 14.28275 1218 ft 24 kts 189°
2026-05-06 16:45 50.09100 14.28074 1215 ft 25 kts 286°
2026-05-06 16:45 50.09131 14.27987 1217 ft 0 kts 306°
2026-05-06 16:45 50.09205 14.27833 1218 ft 57 kts 307°
2026-05-06 16:45 50.09617 14.26984 1215 ft 137 kts 307°
2026-05-06 16:46 50.10297 14.25569 1598 ft 175 kts 307°
2026-05-06 16:46 50.11040 14.24035 2480 ft 181 kts 306°
2026-05-06 16:46 50.11843 14.22377 2894 ft 206 kts 306°
2026-05-06 16:46 50.12763 14.20469 3206 ft 235 kts 306°
2026-05-06 16:47 50.13777 14.18365 3655 ft 255 kts 305°
2026-05-06 16:47 50.14866 14.16107 4294 ft 266 kts 305°
2026-05-06 16:47 50.16003 14.13748 4660 ft 270 kts 305°
2026-05-06 16:47 50.17135 14.11398 4747 ft 271 kts 304°
2026-05-06 16:48 50.18257 14.09062 4790 ft 273 kts 307°
2026-05-06 16:48 50.19487 14.06781 5147 ft 278 kts 316°
2026-05-06 16:48 50.21100 14.05105 6006 ft 282 kts 336°
2026-05-06 16:48 50.23021 14.04463 6817 ft 286 kts 357°
2026-05-06 16:49 50.25028 14.04556 7527 ft 292 kts
2026-05-06 16:49 50.27060 14.05032 8269 ft 298 kts 11°
2026-05-06 16:49 50.29108 14.05678 9042 ft 302 kts 13°
2026-05-06 16:49 50.31185 14.06368 9799 ft 307 kts 12°
2026-05-06 16:50 50.33326 14.07052 10249 ft 323 kts 12°
2026-05-06 16:50 50.35603 14.07732 10543 ft 342 kts 11°
2026-05-06 16:50 50.37984 14.08397 11033 ft 351 kts 10°
2026-05-06 16:50 50.39587 14.08828 11450 ft 355 kts
2026-05-06 16:51 50.42870 14.09687 12336 ft 360 kts
2026-05-06 16:51 50.45352 14.10329 12994 ft 364 kts
2026-05-06 16:51 50.47865 14.10977 13647 ft 368 kts
2026-05-06 16:51 50.50411 14.11576 14235 ft 372 kts
2026-05-06 16:52 50.52984 14.12142 14834 ft 376 kts
2026-05-06 16:52 50.55584 14.12728 15453 ft 380 kts
2026-05-06 16:52 50.58213 14.13353 16069 ft 384 kts
2026-05-06 16:52 50.60863 14.14013 16687 ft 388 kts
2026-05-06 16:53 50.63536 14.14701 17302 ft 392 kts
2026-05-06 16:53 50.66243 14.15410 17898 ft 396 kts
2026-05-06 16:53 50.68977 14.16132 18426 ft 401 kts
2026-05-06 16:53 50.71742 14.16865 18934 ft 405 kts
2026-05-06 16:54 50.74533 14.17600 19462 ft 408 kts
2026-05-06 16:54 50.77346 14.18342 19931 ft 412 kts
2026-05-06 16:54 50.80191 14.19090 20451 ft 416 kts
2026-05-06 16:54 50.83052 14.19847 21002 ft 418 kts
2026-05-06 16:55 50.85930 14.20612 21538 ft 421 kts
2026-05-06 16:55 50.88845 14.21197 22023 ft 422 kts 359°
2026-05-06 16:55 50.91771 14.21065 22526 ft 422 kts 352°
2026-05-06 16:55 50.94706 14.20632 23029 ft 424 kts 349°
2026-05-06 16:56 50.97631 14.20051 23516 ft 425 kts 348°
2026-05-06 16:56 51.00574 14.19391 23957 ft 428 kts 347°
2026-05-06 16:56 51.03534 14.18701 24373 ft 432 kts 347°
2026-05-06 16:56 51.06518 14.18005 24823 ft 434 kts 347°
2026-05-06 16:57 51.09517 14.17342 25269 ft 438 kts 348°
2026-05-06 16:57 51.12554 14.16719 25739 ft 441 kts 349°
2026-05-06 16:57 51.15608 14.16117 26213 ft 444 kts 349°
2026-05-06 16:57 51.18684 14.15519 26719 ft 447 kts 349°
2026-05-06 16:58 51.21791 14.14913 27197 ft 452 kts 349°
2026-05-06 16:58 51.24926 14.14299 27704 ft 456 kts 349°
2026-05-06 16:58 51.28085 14.13675 28271 ft 459 kts 349°
2026-05-06 16:58 51.30189 14.13258 28637 ft 462 kts 349°
2026-05-06 16:59 51.33388 14.12620 29188 ft 465 kts 349°
2026-05-06 16:59 51.36617 14.11975 29756 ft 469 kts 348°
2026-05-06 16:59 51.39869 14.11316 30245 ft 473 kts 348°
2026-05-06 16:59 51.44178 14.10213 30931 ft 475 kts 345°
2026-05-06 17:00 51.47431 14.09248 31474 ft 476 kts 344°
2026-05-06 17:00 51.49632 14.08574 31800 ft 478 kts 344°
2026-05-06 17:00 51.52908 14.07572 32284 ft 481 kts 344°
2026-05-06 17:00 51.56216 14.06576 32745 ft 485 kts 344°
2026-05-06 17:01 51.59543 14.05594 33206 ft 488 kts 344°
2026-05-06 17:01 51.62894 14.04619 33657 ft 491 kts 344°
2026-05-06 17:01 51.66269 14.03647 34032 ft 494 kts 345°
2026-05-06 17:01 51.69665 14.02671 34393 ft 497 kts 345°
2026-05-06 17:02 51.73039 14.01702 34743 ft 500 kts 345°
2026-05-06 17:02 51.76398 14.00736 35056 ft 503 kts 345°
2026-05-06 17:02 51.79968 13.99708 35520 ft 503 kts 345°
2026-05-06 17:02 51.83427 13.98783 35988 ft 505 kts 349°
2026-05-06 17:03 51.86905 13.98408 36423 ft 508 kts 354°
2026-05-06 17:03 51.90491 13.98229 36865 ft 509 kts 355°
2026-05-06 17:03 51.93986 13.98128 37327 ft 510 kts 355°
2026-05-06 17:03 51.97533 13.98063 37809 ft 509 kts 356°
2026-05-06 17:04 52.01072 13.98011 38276 ft 509 kts 356°
2026-05-06 17:04 52.04610 13.97958 38676 ft 508 kts 356°
2026-05-06 17:04 52.08142 13.97900 39018 ft 508 kts 356°
2026-05-06 17:04 52.11672 13.97835 39387 ft 507 kts 356°
2026-05-06 17:05 52.15195 13.97767 39700 ft 507 kts 356°
2026-05-06 17:05 52.18732 13.97693 39823 ft 511 kts 356°
2026-05-06 17:05 52.22296 13.97617 39818 ft 512 kts 356°
2026-05-06 17:06 52.29408 13.97470 39821 ft 511 kts 356°
2026-05-06 17:06 52.36511 13.97324 39829 ft 510 kts 356°
2026-05-06 17:07 52.43610 13.97176 39839 ft 510 kts 356°
2026-05-06 17:07 52.50727 13.97026 39831 ft 513 kts 356°
2026-05-06 17:08 52.57879 13.96877 39834 ft 514 kts 356°
2026-05-06 17:08 52.65035 13.96728 39837 ft 514 kts 356°
2026-05-06 17:09 52.72189 13.96578 39837 ft 514 kts 356°
2026-05-06 17:09 52.79294 13.96428 39842 ft 514 kts 356°
2026-05-06 17:10 52.86451 13.96537 39843 ft 517 kts
2026-05-06 17:10 52.93412 13.99562 39844 ft 522 kts 23°
2026-05-06 17:11 52.99584 14.05954 39840 ft 525 kts 35°
2026-05-06 17:11 53.05466 14.13203 39845 ft 527 kts 37°
2026-05-06 17:12 53.11303 14.20571 39843 ft 527 kts 37°
2026-05-06 17:12 53.17152 14.27918 39844 ft 527 kts 36°
2026-05-06 17:13 53.23012 14.35252 39842 ft 527 kts 36°
2026-05-06 17:13 53.29134 14.41895 39849 ft 524 kts 24°
2026-05-06 17:14 53.35751 14.47013 39845 ft 524 kts 22°
2026-05-06 17:14 53.42439 14.51891 39849 ft 524 kts 21°
2026-05-06 17:15 53.49081 14.56712 39853 ft 523 kts 21°
2026-05-06 17:15 53.55756 14.61602 39856 ft 523 kts 21°
2026-05-06 17:16 53.62427 14.66526 39860 ft 523 kts 21°
2026-05-06 17:16 53.69093 14.71468 39857 ft 523 kts 21°
2026-05-06 17:17 53.75759 14.76427 39856 ft 524 kts 21°
2026-05-06 17:17 53.82427 14.81402 39856 ft 523 kts 21°
2026-05-06 17:18 53.89085 14.86388 39862 ft 523 kts 21°
2026-05-06 17:18 53.95746 14.91344 39866 ft 523 kts 21°
2026-05-06 17:19 54.02405 14.96330 39873 ft 523 kts 22°
2026-05-06 17:19 54.09194 15.00665 39876 ft 521 kts 15°
2026-05-06 17:20 54.16101 15.04403 39946 ft 521 kts 15°
2026-05-06 17:20 54.23016 15.08126 39884 ft 521 kts 15°
2026-05-06 17:21 54.29937 15.11861 39884 ft 521 kts 15°
2026-05-06 17:21 54.36848 15.15603 39885 ft 521 kts 15°
2026-05-06 17:22 54.43764 15.19361 39893 ft 521 kts 15°
2026-05-06 17:22 54.50683 15.23133 39885 ft 521 kts 15°
2026-05-06 17:23 54.57596 15.26915 39908 ft 521 kts 15°
2026-05-06 17:23 54.64496 15.30704 39900 ft 520 kts 15°
2026-05-06 17:24 54.71359 15.34486 39906 ft 520 kts 15°
2026-05-06 17:24 54.78255 15.38299 39906 ft 520 kts 15°
2026-05-06 17:25 54.85155 15.42128 39911 ft 520 kts 15°
2026-05-06 17:25 54.92045 15.45966 39913 ft 520 kts 15°
2026-05-06 17:26 54.98933 15.49817 39913 ft 520 kts 15°
2026-05-06 17:26 55.05819 15.53680 39916 ft 520 kts 15°
2026-05-06 17:27 55.12706 15.57558 39918 ft 520 kts 15°
2026-05-06 17:27 55.19594 15.61450 39922 ft 520 kts 15°
2026-05-06 17:28 55.26478 15.65355 39922 ft 520 kts 15°
2026-05-06 17:28 55.33360 15.69273 39933 ft 520 kts 15°
2026-05-06 17:29 55.40227 15.73196 39927 ft 519 kts 15°
2026-05-06 17:29 55.47098 15.77136 39928 ft 519 kts 15°
2026-05-06 17:30 55.53963 15.81087 39929 ft 519 kts 15°
2026-05-06 17:30 55.60824 15.85050 39936 ft 519 kts 15°
2026-05-06 17:31 55.67677 15.89024 39938 ft 518 kts 15°
2026-05-06 17:31 55.74528 15.93010 39938 ft 518 kts 15°
2026-05-06 17:32 55.81384 15.97014 39954 ft 518 kts 15°
2026-05-06 17:32 55.88227 16.01026 39940 ft 518 kts 15°
2026-05-06 17:33 55.95021 16.05024 39941 ft 518 kts 15°
2026-05-06 17:33 56.01861 16.09064 39945 ft 518 kts 15°
2026-05-06 17:34 56.08699 16.13117 39942 ft 517 kts 15°
2026-05-06 17:34 56.15531 16.17183 39948 ft 517 kts 15°
2026-05-06 17:35 56.22360 16.21262 39950 ft 517 kts 15°
2026-05-06 17:35 56.29189 16.25356 39950 ft 517 kts 15°
2026-05-06 17:36 56.39444 16.31424 39966 ft 517 kts 13°
2026-05-06 17:36 56.46282 16.35491 39977 ft 518 kts 14°
2026-05-06 17:37 56.53110 16.39667 39931 ft 518 kts 16°
2026-05-06 17:37 56.56507 16.41797 39413 ft 516 kts 16°
2026-05-06 17:37 56.59906 16.43912 38641 ft 518 kts 16°
2026-05-06 17:38 56.63336 16.46032 37598 ft 521 kts 16°
2026-05-06 17:38 56.66773 16.48149 36592 ft 523 kts 16°
2026-05-06 17:38 56.70221 16.50273 35619 ft 524 kts 17°
2026-05-06 17:38 56.73680 16.52404 34656 ft 525 kts 17°
2026-05-06 17:39 56.77141 16.54540 33618 ft 526 kts 17°
2026-05-06 17:39 56.80611 16.56685 32521 ft 525 kts 17°
2026-05-06 17:39 56.84065 16.58824 31481 ft 524 kts 17°
2026-05-06 17:39 56.87520 16.60950 30491 ft 522 kts 17°
2026-05-06 17:40 56.90894 16.63043 29618 ft 500 kts 17°
2026-05-06 17:40 56.94094 16.65047 29121 ft 471 kts 17°
2026-05-06 17:40 56.97140 16.66956 28988 ft 454 kts 17°
2026-05-06 17:40 57.00070 16.68793 28971 ft 436 kts 16°
2026-05-06 17:41 57.02888 16.70553 28985 ft 422 kts 16°
2026-05-06 17:41 57.05662 16.72290 28973 ft 420 kts 16°
2026-05-06 17:41 57.11165 16.75735 28975 ft 421 kts 16°
2026-05-06 17:42 57.16723 16.79242 28975 ft 422 kts 16°
2026-05-06 17:42 57.22288 16.82761 28978 ft 422 kts 16°
2026-05-06 17:43 57.27940 16.86320 28909 ft 447 kts 16°
2026-05-06 17:43 57.30961 16.88240 28819 ft 470 kts 17°
2026-05-06 17:43 57.34123 16.90255 28768 ft 486 kts 17°
2026-05-06 17:44 57.37324 16.92304 28498 ft 488 kts 17°
2026-05-06 17:44 57.40535 16.94363 28219 ft 488 kts 17°
2026-05-06 17:44 57.43737 16.96418 27951 ft 486 kts 16°
2026-05-06 17:44 57.46922 16.98464 27682 ft 483 kts 16°
2026-05-06 17:45 57.50091 17.00502 27412 ft 481 kts 16°
2026-05-06 17:45 57.53257 17.02541 27155 ft 479 kts 16°
2026-05-06 17:45 57.56403 17.04571 26908 ft 477 kts 16°
2026-05-06 17:45 57.59532 17.06593 26642 ft 475 kts 16°
2026-05-06 17:46 57.62650 17.08612 26382 ft 473 kts 16°
2026-05-06 17:46 57.65750 17.10623 26138 ft 471 kts 16°
2026-05-06 17:46 57.68840 17.12631 25886 ft 469 kts 16°
2026-05-06 17:46 57.71916 17.14633 25637 ft 467 kts 16°
2026-05-06 17:47 57.74976 17.16628 25388 ft 465 kts 16°
2026-05-06 17:47 57.78031 17.18624 25147 ft 463 kts 16°
2026-05-06 17:47 57.80042 17.19939 24980 ft 462 kts 16°
2026-05-06 17:47 57.84093 17.22595 24654 ft 460 kts 16°
2026-05-06 17:48 57.86088 17.23904 24525 ft 459 kts 16°
2026-05-06 17:48 57.89100 17.25886 24279 ft 458 kts 15°
2026-05-06 17:48 57.92103 17.27863 24047 ft 457 kts 15°
2026-05-06 17:48 57.95094 17.29837 23824 ft 455 kts 15°
2026-05-06 17:49 57.98078 17.31810 23596 ft 453 kts 15°
2026-05-06 17:49 58.01041 17.33771 23317 ft 451 kts 15°
2026-05-06 17:49 58.04001 17.35734 23043 ft 449 kts 15°
2026-05-06 17:49 58.06944 17.37690 22764 ft 447 kts 15°
2026-05-06 17:50 58.09869 17.39636 22497 ft 445 kts 15°
2026-05-06 17:50 58.12787 17.41583 22257 ft 443 kts 15°
2026-05-06 17:50 58.15690 17.43522 21991 ft 443 kts 15°
2026-05-06 17:50 58.18595 17.45430 21728 ft 441 kts 15°
2026-05-06 17:51 58.21485 17.47362 21456 ft 439 kts 15°
2026-05-06 17:51 58.24363 17.49281 21202 ft 437 kts 15°
2026-05-06 17:51 58.27226 17.51200 20941 ft 435 kts 15°
2026-05-06 17:51 58.30071 17.53116 20690 ft 433 kts 16°
2026-05-06 17:52 58.32903 17.55046 20437 ft 432 kts 16°
2026-05-06 17:52 58.35724 17.56971 20186 ft 430 kts 16°
2026-05-06 17:52 58.38532 17.58884 19936 ft 428 kts 16°
2026-05-06 17:52 58.41328 17.60788 19701 ft 425 kts 16°
2026-05-06 17:53 58.44073 17.62656 19465 ft 423 kts 16°
2026-05-06 17:53 58.46841 17.64542 19212 ft 421 kts 16°
2026-05-06 17:53 58.49591 17.66418 18964 ft 419 kts 16°
2026-05-06 17:53 58.52335 17.68293 18734 ft 417 kts 16°
2026-05-06 17:54 58.55062 17.70157 18505 ft 415 kts 16°
2026-05-06 17:54 58.57775 17.72017 18256 ft 413 kts 16°
2026-05-06 17:54 58.60476 17.73870 17972 ft 411 kts 16°
2026-05-06 17:54 58.63160 17.75715 17709 ft 409 kts 16°
2026-05-06 17:55 58.65833 17.77555 17453 ft 407 kts 16°
2026-05-06 17:55 58.68485 17.79384 17184 ft 403 kts 17°
2026-05-06 17:55 58.71117 17.81202 16918 ft 401 kts 17°
2026-05-06 17:55 58.73732 17.83011 16659 ft 398 kts 17°
2026-05-06 17:56 58.76334 17.84814 16389 ft 396 kts 17°
2026-05-06 17:56 58.78922 17.86610 16120 ft 394 kts 17°
2026-05-06 17:56 58.81482 17.88465 15872 ft 393 kts 20°
2026-05-06 17:56 58.83963 17.90665 15622 ft 392 kts 24°
2026-05-06 17:57 58.86405 17.92968 15366 ft 389 kts 24°
2026-05-06 17:57 58.88827 17.95265 15111 ft 387 kts 24°
2026-05-06 17:57 58.91242 17.97553 14865 ft 385 kts 24°
2026-05-06 17:57 58.93641 17.99830 14623 ft 384 kts 24°
2026-05-06 17:58 58.96034 18.02101 14368 ft 382 kts 24°
2026-05-06 17:58 58.98416 18.04364 14133 ft 380 kts 24°
2026-05-06 17:58 59.00781 18.06612 13886 ft 378 kts 24°
2026-05-06 17:58 59.03139 18.08858 13627 ft 376 kts 24°
2026-05-06 17:59 59.05476 18.11088 13354 ft 374 kts 24°
2026-05-06 17:59 59.07814 18.13274 13086 ft 372 kts 24°
2026-05-06 17:59 59.10226 18.14987 12807 ft 368 kts 11°
2026-05-06 17:59 59.12748 18.15597 12548 ft 364 kts
2026-05-06 18:00 59.15264 18.15893 12282 ft 362 kts
2026-05-06 18:00 59.17778 18.16167 12020 ft 360 kts
2026-05-06 18:00 59.20275 18.16389 11771 ft 359 kts
2026-05-06 18:00 59.22758 18.16661 11521 ft 357 kts
2026-05-06 18:01 59.25235 18.17030 11218 ft 356 kts
2026-05-06 18:01 59.27693 18.17403 10818 ft 353 kts
2026-05-06 18:01 59.30134 18.17768 10391 ft 350 kts
2026-05-06 18:01 59.32552 18.18118 9978 ft 347 kts
2026-05-06 18:02 59.34927 18.18460 9527 ft 336 kts
2026-05-06 18:02 59.37212 18.18800 9079 ft 323 kts
2026-05-06 18:02 59.39416 18.19107 8645 ft 312 kts
2026-05-06 18:02 59.41550 18.19377 8203 ft 302 kts
2026-05-06 18:03 59.43595 18.19626 7779 ft 294 kts
2026-05-06 18:03 59.45613 18.19854 7345 ft 287 kts
2026-05-06 18:03 59.47574 18.20049 7066 ft 276 kts
2026-05-06 18:03 59.49451 18.20242 7018 ft 268 kts
2026-05-06 18:04 59.51311 18.20479 6990 ft 267 kts
2026-05-06 18:04 59.53151 18.20727 6991 ft 263 kts
2026-05-06 18:04 59.54994 18.20974 6997 ft 267 kts
2026-05-06 18:04 59.56852 18.21211 7002 ft 268 kts
2026-05-06 18:05 59.58715 18.21453 7000 ft 268 kts
2026-05-06 18:05 59.60576 18.21707 6997 ft 267 kts
2026-05-06 18:05 59.62431 18.21958 6995 ft 268 kts
2026-05-06 18:05 59.64291 18.22199 6997 ft 268 kts
2026-05-06 18:06 59.66155 18.22445 6812 ft 268 kts
2026-05-06 18:06 59.68013 18.22671 6340 ft 266 kts
2026-05-06 18:06 59.69856 18.22860 5811 ft 265 kts
2026-05-06 18:06 59.71687 18.23063 5285 ft 259 kts
2026-05-06 18:07 59.73436 18.23253 4781 ft 246 kts
2026-05-06 18:07 59.75110 18.23441 4266 ft 236 kts
2026-05-06 18:07 59.76728 18.23621 3753 ft 230 kts
2026-05-06 18:07 59.78311 18.23787 3240 ft 226 kts
2026-05-06 18:08 59.79867 18.23929 2752 ft 220 kts
2026-05-06 18:08 59.81315 18.23555 2537 ft 200 kts 335°
2026-05-06 18:08 59.82263 18.21881 2523 ft 174 kts 297°
2026-05-06 18:08 59.82731 18.19739 2513 ft 167 kts 285°
2026-05-06 18:09 59.83087 18.17545 2485 ft 167 kts 283°
2026-05-06 18:09 59.83433 18.15327 2482 ft 168 kts 282°
2026-05-06 18:09 59.83778 18.13110 2485 ft 168 kts 283°
2026-05-06 18:09 59.83923 18.10852 2481 ft 164 kts 255°
2026-05-06 18:10 59.83475 18.08883 2492 ft 156 kts 230°
2026-05-06 18:10 59.82824 18.07139 2481 ft 155 kts 223°
2026-05-06 18:10 59.82099 18.05591 2476 ft 145 kts 223°
2026-05-06 18:10 59.81455 18.04227 2474 ft 127 kts 223°
2026-05-06 18:11 59.80885 18.03043 2480 ft 116 kts 222°
2026-05-06 18:11 59.80286 18.01986 2474 ft 113 kts 207°
2026-05-06 18:11 59.79588 18.01263 2489 ft 114 kts 203°
2026-05-06 18:11 59.78889 18.00620 2474 ft 111 kts 198°
2026-05-06 18:12 59.78128 18.00411 2468 ft 112 kts 185°
2026-05-06 18:12 59.77352 18.00215 2422 ft 112 kts 187°
2026-05-06 18:12 59.76582 17.99992 2386 ft 112 kts 187°
2026-05-06 18:12 59.75813 17.99760 2324 ft 112 kts 181°
2026-05-06 18:13 59.75042 17.99608 2276 ft 111 kts 178°
2026-05-06 18:13 59.74271 17.99481 2237 ft 110 kts 189°
2026-05-06 18:13 59.73517 17.99251 2295 ft 110 kts 187°
2026-05-06 18:13 59.72719 17.98826 1959 ft 124 kts 194°
2026-05-06 18:14 59.71873 17.98450 1680 ft 121 kts 190°
2026-05-06 18:14 59.71082 17.98167 1485 ft 112 kts 196°
2026-05-06 18:14 59.70327 17.97871 1361 ft 111 kts 189°
2026-05-06 18:14 59.69560 17.97593 1187 ft 112 kts 190°
2026-05-06 18:15 59.68798 17.97284 1011 ft 114 kts 188°
2026-05-06 18:15 59.68026 17.97001 804 ft 112 kts 192°
2026-05-06 18:15 59.67254 17.96750 650 ft 113 kts 197°
2026-05-06 18:15 59.66481 17.96459 515 ft 114 kts 193°
2026-05-06 18:16 59.65707 17.96174 360 ft 113 kts 185°
2026-05-06 18:16 59.64936 17.95906 214 ft 111 kts 191°
2026-05-06 18:16 59.64187 17.95619 201 ft 115 kts 188°
2026-05-06 18:16 59.63181 17.95196 683 ft 180 kts 188°
2026-05-06 18:17 59.61791 17.94398 1735 ft 241 kts 196°
2026-05-06 18:17 59.59985 17.93469 2512 ft 286 kts 192°
2026-05-06 18:17 59.57946 17.92611 3211 ft 307 kts 191°
2026-05-06 18:17 59.55960 17.92458 3786 ft 266 kts 170°
2026-05-06 18:18 59.54335 17.93849 4029 ft 253 kts 143°
2026-05-06 18:18 59.53231 17.96571 4005 ft 259 kts 115°
2026-05-06 18:18 59.52777 18.00007 4008 ft 261 kts 99°
2026-05-06 18:18 59.52549 18.03525 4001 ft 252 kts 97°
2026-05-06 18:19 59.52364 18.06828 4008 ft 233 kts 97°
2026-05-06 18:19 59.52194 18.09866 4007 ft 221 kts 97°
2026-05-06 18:19 59.52024 18.12903 3999 ft 220 kts 97°
2026-05-06 18:19 59.51856 18.15900 3999 ft 220 kts 95°
2026-05-06 18:20 59.51804 18.18908 3991 ft 222 kts 81°
2026-05-06 18:20 59.52452 18.21594 3998 ft 223 kts 49°
2026-05-06 18:20 59.53766 18.23208 4005 ft 223 kts 15°
2026-05-06 18:20 59.55284 18.23512 4001 ft 224 kts 359°
2026-05-06 18:21 59.56846 18.23458 4002 ft 225 kts 358°
2026-05-06 18:21 59.58407 18.23359 4001 ft 224 kts 358°
2026-05-06 18:21 59.59963 18.23252 3998 ft 224 kts 358°
2026-05-06 18:21 59.61521 18.23143 4001 ft 224 kts 358°
2026-05-06 18:22 59.63077 18.23034 3973 ft 225 kts 358°
2026-05-06 18:22 59.64651 18.22929 3626 ft 228 kts 358°
2026-05-06 18:22 59.66262 18.22814 3117 ft 236 kts 357°
2026-05-06 18:22 59.67923 18.22685 2653 ft 240 kts 358°
2026-05-06 18:23 59.69543 18.22550 2510 ft 226 kts 358°
2026-05-06 18:23 59.71114 18.22415 2500 ft 226 kts 357°
2026-05-06 18:23 59.72689 18.22286 2499 ft 227 kts 358°
2026-05-06 18:23 59.74270 18.22157 2499 ft 227 kts 358°
2026-05-06 18:24 59.75846 18.22018 2498 ft 226 kts 358°
2026-05-06 18:24 59.77417 18.21837 2491 ft 226 kts 354°
2026-05-06 18:24 59.78890 18.20767 2500 ft 227 kts 322°
2026-05-06 18:24 59.80024 18.18642 2497 ft 224 kts 309°
2026-05-06 18:25 59.81049 18.16302 2497 ft 223 kts 305°
2026-05-06 18:25 59.81840 18.13679 2480 ft 220 kts 285°
2026-05-06 18:25 59.82225 18.10755 2479 ft 218 kts 278°
2026-05-06 18:25 59.82524 18.07806 2479 ft 217 kts 271°
2026-05-06 18:26 59.82661 18.04856 2480 ft 210 kts 252°
2026-05-06 18:26 59.82498 18.01983 2498 ft 207 kts 248°
2026-05-06 18:26 59.81808 17.99567 2476 ft 195 kts 224°
2026-05-06 18:26 59.81029 17.97579 2483 ft 170 kts 220°
2026-05-06 18:27 59.80299 17.95920 2494 ft 152 kts 224°
2026-05-06 18:27 59.79554 17.94442 2500 ft 157 kts 214°
2026-05-06 18:27 59.78492 17.93430 2464 ft 187 kts 194°
2026-05-06 18:27 59.77401 17.92037 2467 ft 186 kts 226°
2026-05-06 18:28 59.76811 17.89844 2490 ft 178 kts 245°
2026-05-06 18:28 59.76411 17.87556 2507 ft 172 kts 240°
2026-05-06 18:28 59.76013 17.85200 2487 ft 190 kts 248°
2026-05-06 18:28 59.75552 17.82502 2463 ft 216 kts 247°
2026-05-06 18:29 59.75041 17.79655 2470 ft 227 kts 242°
2026-05-06 18:29 59.74520 17.76730 2762 ft 230 kts 249°
2026-05-06 18:29 59.73983 17.73744 3234 ft 230 kts 248°
2026-05-06 18:29 59.73436 17.70768 3703 ft 230 kts 248°
2026-05-06 18:30 59.72856 17.67796 3947 ft 232 kts 248°
2026-05-06 18:30 59.72273 17.64808 3970 ft 233 kts 247°
2026-05-06 18:30 59.71691 17.61802 3973 ft 233 kts 248°
2026-05-06 18:30 59.71129 17.58794 3966 ft 234 kts 251°
2026-05-06 18:31 59.71057 17.55569 3974 ft 239 kts 281°
2026-05-06 18:31 59.71817 17.52627 3968 ft 246 kts 309°
2026-05-06 18:31 59.73199 17.50638 3961 ft 250 kts 334°
2026-05-06 18:31 59.74899 17.49987 3806 ft 251 kts
2026-05-06 18:32 59.76577 17.50857 3326 ft 251 kts 28°
2026-05-06 18:32 59.77960 17.52920 2841 ft 246 kts 45°
2026-05-06 18:32 59.79150 17.55224 2537 ft 230 kts 47°
2026-05-06 18:32 59.80265 17.57429 2481 ft 226 kts 47°
2026-05-06 18:33 59.81381 17.59630 2476 ft 226 kts 47°
2026-05-06 18:33 59.82478 17.61863 2464 ft 226 kts 51°
2026-05-06 18:33 59.83172 17.64592 2478 ft 220 kts 80°
2026-05-06 18:33 59.83427 17.67575 2474 ft 218 kts 86°
2026-05-06 18:34 59.83608 17.70562 2486 ft 217 kts 81°
2026-05-06 18:34 59.83793 17.73566 2465 ft 219 kts 87°
2026-05-06 18:34 59.83973 17.76542 2476 ft 217 kts 87°
2026-05-06 18:34 59.84153 17.79711 2459 ft 238 kts 87°
2026-05-06 18:35 59.84335 17.82942 2468 ft 227 kts 87°
2026-05-06 18:35 59.84509 17.85941 2487 ft 210 kts 88°
2026-05-06 18:35 59.84684 17.88694 2504 ft 192 kts 87°
2026-05-06 18:35 59.84793 17.90400 2502 ft 186 kts 87°
2026-05-06 18:36 59.84952 17.92934 2494 ft 186 kts 88°
2026-05-06 18:36 59.85117 17.95489 2480 ft 187 kts 90°
2026-05-06 18:36 59.84824 17.97950 2472 ft 183 kts 120°
2026-05-06 18:36 59.83899 17.99543 2477 ft 174 kts 161°
2026-05-06 18:37 59.82737 17.99996 2484 ft 169 kts 177°
2026-05-06 18:37 59.81561 17.99978 2455 ft 168 kts 183°
2026-05-06 18:37 59.80389 17.99851 2441 ft 169 kts 184°
2026-05-06 18:37 59.79218 17.99680 2358 ft 169 kts 185°
2026-05-06 18:38 59.78051 17.99482 2201 ft 168 kts 185°
2026-05-06 18:38 59.76911 17.99273 1881 ft 160 kts 180°
2026-05-06 18:38 59.75799 17.99133 1721 ft 165 kts 182°
2026-05-06 18:38 59.74626 17.98924 1693 ft 170 kts 185°
2026-05-06 18:39 59.73542 17.98707 1694 ft 141 kts 172°
2026-05-06 18:39 59.72612 17.98601 1638 ft 129 kts 187°
2026-05-06 18:39 59.71725 17.98341 1583 ft 129 kts 189°
2026-05-06 18:40 59.69932 17.97653 1305 ft 140 kts 188°
2026-05-06 18:40 59.69006 17.97390 1070 ft 128 kts 185°
2026-05-06 18:40 59.68143 17.97043 867 ft 129 kts 189°
2026-05-06 18:40 59.67223 17.96746 681 ft 139 kts 189°
2026-05-06 18:41 59.66979 17.96667 636 ft 140 kts 194°
2026-05-06 18:42 59.66331 17.96417 507 ft 141 kts 195°
2026-05-06 18:42 59.65413 17.96082 297 ft 124 kts 199°
2026-05-06 18:43 59.64612 17.95787 158 ft 115 kts 194°
2026-05-06 18:43 59.63976 17.95561 150 ft 56 kts 191°
2026-05-06 18:43 59.63726 17.95475 151 ft 33 kts 188°
2026-05-06 18:43 59.63510 17.95381 151 ft 31 kts 190°
2026-05-06 18:44 59.63299 17.95317 148 ft 30 kts 191°
2026-05-06 18:44 59.63101 17.95242 149 ft 28 kts 190°
2026-05-06 18:44 59.62909 17.95175 155 ft 29 kts 189°
2026-05-06 18:44 59.62710 17.95101 151 ft 20 kts 196°
2026-05-06 18:45 59.62669 17.94888 145 ft 19 kts 282°
2026-05-06 18:45 59.62673 17.94848 145 ft 0 kts 282°
2026-05-06 18:45 59.62689 17.94785 145 ft 14 kts 300°
2026-05-06 18:45 59.62791 17.94660 146 ft 12 kts
2026-05-06 18:46 59.62854 17.94728 144 ft 17 kts 27°
2026-05-06 18:46 59.63016 17.94806 144 ft 31 kts 11°
2026-05-06 18:46 59.63223 17.94878 144 ft 21 kts 13°
2026-05-06 18:46 59.63381 17.94936 144 ft 26 kts
2026-05-06 18:47 59.63571 17.95009 144 ft 30 kts 12°
2026-05-06 18:47 59.63793 17.95089 144 ft 34 kts 10°
2026-05-06 18:47 59.64041 17.95176 144 ft 38 kts 11°
2026-05-06 18:47 59.64252 17.95253 144 ft 16 kts 10°
2026-05-06 18:48 59.64381 17.95299 144 ft 22 kts 10°
2026-05-06 18:48 59.64546 17.95356 144 ft 26 kts 10°
2026-05-06 18:48 59.64738 17.95430 144 ft 30 kts 11°
2026-05-06 18:48 59.64952 17.95505 144 ft 33 kts
2026-05-06 18:49 59.65191 17.95437 144 ft 37 kts 346°
2026-05-06 18:49 59.65450 17.95300 144 ft 40 kts 344°
2026-05-06 18:49 59.65670 17.95184 144 ft 25 kts 345°
2026-05-06 18:49 59.65746 17.95016 144 ft 18 kts 269°
2026-05-06 18:50 59.65715 17.94746 144 ft 22 kts 254°
2026-05-06 18:50 59.65673 17.94429 144 ft 26 kts 255°
2026-05-06 18:50 59.65620 17.94064 144 ft 29 kts 252°
2026-05-06 18:50 59.65540 17.93881 144 ft 13 kts 189°
2026-05-06 18:51 59.65525 17.93874 144 ft 1 kts 196°
2026-05-06 18:51 59.65504 17.93844 144 ft 6 kts 225°
2026-05-06 18:51 59.65481 17.93755 144 ft 6 kts 248°
2026-05-06 18:51 59.65478 17.93740 144 ft 0 kts 246°